Regional Weather Roundup
Issued by NWS

Home | Current Version | Previous Version | Text Only | Print | Product List | Glossary Off
Versions: 1 2 3 4 5 6 7 8 9 10 11 12 13 14 15 16 17 18 19 20 21 22 23 24 25 26 27 28 29 30 31 32 33 34 35 36 37 38 39 40 41 42 43 44 45 46 47 48 49 50

000
ASUS43 KMKX 091211
RWRWI

WISCONSIN REGIONAL WEATHER ROUNDUP
NATIONAL WEATHER SERVICE MILWAUKEE/SULLIVAN WI
600 AM CST TUE FEB 09 2016

NOTE: "FAIR" INDICATES FEW OR NO CLOUDS BELOW 12,000 FEET WITH NO
SIGNIFICANT WEATHER AND/OR OBSTRUCTIONS TO VISIBILITY.

WIZ001-002-006>008-014>016-023>028-091300-
NORTHWEST WISCONSIN

CITY           SKY/WX    TMP DP  RH WIND       PRES   REMARKS
SUPERIOR ARPT  CLOUDY     4  -4  69 N13G20    30.07S WCI -13
6HR MIN TEMP:   4; 6HR MAX TEMP:   8;

ASHLAND        CLOUDY     9   3  77 N15       29.97R WCI  -8
6HR MIN TEMP:   8; 6HR MAX TEMP:  11;

HAYWARD        CLOUDY     3  -2  79 CALM      29.95R
6HR MIN TEMP:   3; 6HR MAX TEMP:   7;

SIREN          CLOUDY     3  -4  71 NW9       30.03S WCI -11
6HR MIN TEMP:   3; 6HR MAX TEMP:   7;

CUMBERLAND     CLEAR      1  -6  71 NW14G22   29.97R WCI -17
RICE LAKE      CLOUDY     3  -3  74 NW8G16    29.99R WCI -10
6HR MIN TEMP:   3; 6HR MAX TEMP:   7;

CHETEK         CLOUDY     3  -3  75 NW6       29.97S WCI  -8
6HR MIN TEMP:   3; 6HR MAX TEMP:   7;

LADYSMITH      CLOUDY     5  -1  77 NW13      29.93R WCI -12
EAU CLAIRE     MOCLDY     5  -4  66 NW9       29.98R WCI  -9
6HR MIN TEMP:   5; 6HR MAX TEMP:   9;

MENOMONIE      PTCLDY     6  -2  68 NW14G23   30.00R WCI -11
6HR MIN TEMP:   6; 6HR MAX TEMP:  12;

NEW RICHMOND   MOCLDY     4  -3  72 N15       30.02S WCI -14
6HR MIN TEMP:   4; 6HR MAX TEMP:   9;

OSCEOLA        CLOUDY     6  -1  71 NW12      30.07S WCI -10
6HR MIN TEMP:   5; 6HR MAX TEMP:  10;

$$

WIZ003>005-009-010-017-018-091300-
NORTH CENTRAL WISCONSIN

CITY           SKY/WX    TMP DP  RH WIND       PRES   REMARKS
MANITOWISH WTR LGT SNOW  10   5  82 N10G21    29.79R WCI  -4
6HR MIN TEMP:  10; 6HR MAX TEMP:  10;

ARBOR VITAE    LGT SNOW  11   7  82 N10G16    29.78R WCI  -2
6HR MIN TEMP:  11; 6HR MAX TEMP:  13;

WOODRUFF       LGT SNOW  11   7  82 N10G16    29.78R WCI  -2
6HR MIN TEMP:  11; 6HR MAX TEMP:  13;

RHINELANDER    LGT SNOW  10   4  76 NW9G16    29.76R WCI  -3
6HR MIN TEMP:   7; 6HR MAX TEMP:  11; 6HR PCP: TRACE;

EAGLE RIVER    LGT SNOW  10   4  75 N10G17    29.75S WCI  -4
LAND O LAKES   FLURRIES  10   5  81 N14G21    29.76S WCI  -6
6HR MIN TEMP:  10; 6HR MAX TEMP:  11;

PHILLIPS       CLOUDY     6   1  80 NW12G18   29.83R WCI  -9
6HR MIN TEMP:   6; 6HR MAX TEMP:   8;

TOMAHAWK       LGT SNOW   9   4  83 NW8       29.80R WCI  -4
6HR MIN TEMP:   6; 6HR MAX TEMP:   9;

MEDFORD        LGT SNOW   6   2  84 NW13      29.82R WCI -10
6HR MIN TEMP:   6; 6HR MAX TEMP:   8;

MERRILL        LGT SNOW  10   5  81 NW8       29.80S WCI  -3
6HR MIN TEMP:   8; 6HR MAX TEMP:  10;

$$

WIZ029-030-035-036-043>047-091300-
CENTRAL WISCONSIN

CITY           SKY/WX    TMP DP  RH WIND       PRES   REMARKS
WAUSAU         LGT SNOW  10   5  80 NW9       29.79S WCI  -3
6HR MIN TEMP:   9; 6HR MAX TEMP:  12; 6HR PCP: TRACE;

MOSINEE        LGT SNOW   9   5  85 NW14G24   29.82R WCI  -8
MARSHFIELD     LGT SNOW   7   0  73 NW20      29.83R WCI -13
6HR MIN TEMP:   7; 6HR MAX TEMP:  10; 6HR PCP: TRACE;

STEVENS POINT  LGT SNOW   7   2  80 W7        29.83R WCI  -5
6HR MIN TEMP:   7; 6HR MAX TEMP:  10;

WAUPACA        CLOUDY    12   5  73 W10       29.82R WCI  -1
6HR MIN TEMP:  12; 6HR MAX TEMP:  17;

WAUTOMA        FLURRIES  10   2  70 NW15G22   29.84R WCI  -7
6HR MIN TEMP:  10; 6HR MAX TEMP:  14; 6HR PCP: TRACE;

WISC RAPIDS    LGT SNOW   8   0  69 NW14      29.86R WCI  -8
6HR MIN TEMP:   7; 6HR MAX TEMP:  11; 6HR PCP: TRACE;

CAMP DOUGLAS   FLURRIES   9   5  85 NW16      29.88R WCI  -9
                                      6HR PCP: TRACE;

$$

WIZ011>013-019>022-031-037>040-048>050-091300-
NORTHEAST WISCONSIN

CITY           SKY/WX    TMP DP  RH WIND       PRES   REMARKS
ANTIGO         FLURRIES   9   5  84 NW9       29.75R WCI  -5
6HR MIN TEMP:   7; 6HR MAX TEMP:  10;

SHAWANO        LGT SNOW  15   8  76 W5        29.80R WCI   7
6HR MIN TEMP:  14; 6HR MAX TEMP:  18;

OCONTO         CLOUDY    15   6  68 N9        29.78R WCI   3
6HR MIN TEMP:  15; 6HR MAX TEMP:  17;

STURGEON BAY   CLOUDY    14   3  62 NW17      29.77R WCI  -3
6HR MIN TEMP:  14; 6HR MAX TEMP:  18;

GREEN BAY      CLOUDY    13   7  77 NW10      29.78S WCI   0
6HR MIN TEMP:  12; 6HR MAX TEMP:  18; 6HR PCP: TRACE;

MANITOWOC      FLURRIES  12   8  84 NW10      29.76R WCI  -1
6HR MIN TEMP:  12; 6HR MAX TEMP:  19; 6HR PCP: TRACE;

APPLETON       CLOUDY    12   3  67 NW15      29.77R WCI  -4
CLINTONVILLE   FLURRIES  12   7  79 NW12      29.80R WCI  -2
OSHKOSH        LGT SNOW  10   4  76 NW13      29.79R WCI  -5
6HR MIN TEMP:  10; 6HR MAX TEMP:  16; 6HR PCP: TRACE;

$$

WIZ032>034-041-042-053>061-091300-
SOUTHWEST WISCONSIN

CITY           SKY/WX    TMP DP  RH WIND       PRES   REMARKS
LA CROSSE      CLOUDY     8   0  69 NW15      29.97R WCI  -9
6HR MIN TEMP:   8; 6HR MAX TEMP:  13;

SPARTA         FLURRIES   8   2  77 NW9       29.94R WCI  -5
6HR MIN TEMP:   8; 6HR MAX TEMP:  13;

VIROQUA        PTCLDY     6   0  76 NW12G17   29.88R WCI -10
6HR MIN TEMP:   6; 6HR MAX TEMP:  12;

BOSCOBEL       MIX PCPN  10   1  67 NW7G20    29.93R WCI  -1
6HR MIN TEMP:  10; 6HR MAX TEMP:  15; 6HR PCP: TRACE;

PRAIRIE DU CHI CLEAR     11   1  65 NW12      29.95R WCI  -4
6HR MIN TEMP:  11; 6HR MAX TEMP:  15;

PLATTEVILLE    CLEAR     10   3  75 NW17      29.87R WCI  -8
6HR MIN TEMP:  10; 6HR MAX TEMP:  14;

$$

WIZ056-057-062-063-064-067-068-091300-
SOUTH CENTRAL WISCONSIN

CITY           SKY/WX    TMP DP  RH WIND       PRES   REMARKS
REEDSBURG      FLURRIES   8   1  73 NW15      29.87R WCI  -9
6HR MIN TEMP:   8; 6HR MAX TEMP:  13;

BARABOO/DELLS  CLOUDY     8   2  75 NW14      29.85R WCI  -8
6HR MIN TEMP:   8; 6HR MAX TEMP:  13;

LONE ROCK      LGT SNOW  10   2  69 NW15G22   29.90R WCI  -7
6HR MIN TEMP:  10; 6HR MAX TEMP:  15; 6HR PCP: TRACE;

MINERAL POINT  FLURRIES  10   5  79 NW15G21   29.85R WCI  -6
MADISON        FLURRIES  10   3  73 NW12G20   29.83R WCI  -5
6HR MIN TEMP:  10; 6HR MAX TEMP:  14; 6HR PCP:  0.01;

MIDDLETON      CLOUDY    11   5  76 NW18      29.84R WCI  -6
6HR MIN TEMP:  11; 6HR MAX TEMP:  16;

WATERTOWN      CLOUDY    11   6  81 NW13      29.80R WCI  -4
6HR MIN TEMP:  11; 6HR MAX TEMP:  16;

MONROE         CLOUDY    12   5  73 NW13G20   29.81R WCI  -3
JANESVILLE     LGT SNOW  16  10  79 NW13      29.81R WCI   2
$$

WIZ051-052-058>065-066-070>072-091300-
SOUTHEAST WISCONSIN

CITY           SKY/WX    TMP DP  RH WIND       PRES   REMARKS
MILWAUKEE      FLURRIES  15   8  73 NW15G22   29.77R WCI   0
6HR MIN TEMP:  15; 6HR MAX TEMP:  19; 6HR PCP:  0.04;

WAUKESHA       LGT SNOW  10   7  85 NW14G23   29.78R WCI  -5
MILWAUKEE/TIMM PTCLDY    12   5  73 NW17      29.78R WCI  -5
RACINE         FLURRIES  15   9  76 NW9       29.78R WCI   3
6HR MIN TEMP:  15; 6HR MAX TEMP:  19; 6HR PCP: TRACE;

BURLINGTON     LGT SNOW  12   7  80 NW9G16    29.78R WCI  -1
6HR MIN TEMP:  12; 6HR MAX TEMP:  16;

KENOSHA        FLURRIES  15   9  76 NW10      29.77R WCI   2
6HR MIN TEMP:  15; 6HR MAX TEMP:  19; 6HR PCP: TRACE;

FOND DU LAC    FLURRIES  11   5  77 NW16      29.79R WCI  -6
6HR MIN TEMP:  11; 6HR MAX TEMP:  18; 6HR PCP: TRACE;

SHEBOYGAN      PTCLDY    12   6  77 NW12      29.76R WCI  -2
6HR MIN TEMP:  12; 6HR MAX TEMP:  19; 6HR PCP: TRACE;

WEST BEND      FLURRIES  12   7  79 NW3G16    29.77R
JUNEAU         FLURRIES  10   4  79 NW9G18    29.80R WCI  -3
6HR MIN TEMP:  10; 6HR MAX TEMP:  15;

$$

LSZ147-162-091300-
LAKE SUPERIOR

STATION/POSITION TIME  TEMP    WIND        PRES    WAVE
                       AIR SEA DIR/SP/G            HT/PER
                 (UTC) (F)     (DEG/KT/KT) (MB)    (FT/S)
DEVILS ISLAND    1200   10     350/ 27/ 33 1017.1R
PORT WING        1100   10     350/ 16/ 23 1016.6R
SAXON HARBOR     1120   14                 1013.5R
$$

LMZ867-665-643>646-091300-
LAKE MICHIGAN

STATION/POSITION TIME  TEMP    WIND        PRES    WAVE
                       AIR SEA DIR/SP/G            HT/PER
                 (UTC) (F)     (DEG/KT/KT) (MB)    (FT/S)
CHAMBERS ISLAND  1100   15     310/ 16/ 23C1F1C2F2C3F3C4F4C5F5C6F6C7F7C8M1C9M2Ca!


USA.gov is the U.S. government's official web portal to all federal, state and local government web resources and services.